Flag for Chile Weather past 2 weeks in Valdivia, Chile

Now
61 °F

More clouds than sun.


Feels Like: 61 °F
Forecast: N/A
Wind: 14 mph from Northwest

Location: Puerto Montt Airport

Current Time: Oct 20, 2014 at 6:56:11 PM

Latest Report: Oct 20, 2014 at 6:00 PM


Visibility: N/A

Pressure: 29.95 "Hg

Humidity: 72%

Dew point: 52 °F

Location of ValdiviaLocation

Historic Weather in Valdivia — Graph

°F

Valdivia temperature yesterday

Maximum temperature yesterday: 52 °F (at 3:00 PM)
Minimum temperature yesterday: 46 °F (at 12:00 AM)
Average temperature yesterday: 49 °F

Past Weeks' High & Low Weather Summary

 TemperatureHumidityPressure
High64 °F (Oct 20, 3:00 PM)100% (Oct 9, 3:00 AM)30.33 "Hg (Oct 9, 3:00 AM)
Low32 °F (Oct 8, 5:00 AM)44% (Oct 7, 3:00 PM)29.62 "Hg (Oct 17, 7:00 PM)
Average49 °F82%30.08 "Hg
* Reported Oct 5 5:00 PM — Oct 20 5:00 PM, Valdivia, Weather by CustomWeather, © 2014

Note: Actual official high and low records may vary slightly from our data, if they occured in-between our weather recording intervals... More about our weather records

Advertising

Valdivia weather history for previous 24 hours

 ConditionsComfort  
Time TempWeatherWind HumidityBarometerVisibility
5:00 PM
Oct 20
61 °FMore clouds than sun.16 mph72%29.95 "HgN/A
4:00 PM64 °FMore clouds than sun.16 mph68%29.95 "HgN/A
3:00 PM64 °FMore clouds than sun.17 mph64%29.95 "HgN/A
2:00 PM63 °FMore clouds than sun.16 mph73%29.95 "HgN/A
1:00 PM61 °FMore clouds than sun.17 mph77%29.95 "HgN/A
12:00 PM61 °FMore clouds than sun.20 mph83%29.95 "HgN/A
11:00 AM57 °FPartly sunny.18 mph88%29.95 "HgN/A
10:00 AM55 °FPartly sunny.15 mph88%29.95 "HgN/A
9:00 AM55 °FOvercast.14 mph88%29.95 "HgN/A
8:00 AM54 °FMostly cloudy.13 mph94%29.95 "HgN/A
7:00 AM54 °FMostly cloudy.14 mph94%29.95 "HgN/A
6:00 AM54 °FOvercast.15 mph88%29.92 "HgN/A
5:00 AM54 °FOvercast.13 mph88%29.95 "HgN/A
4:00 AM54 °FOvercast.13 mph88%29.95 "HgN/A
3:00 AM52 °FOvercast.16 mph94%29.92 "HgN/A
2:00 AM52 °FOvercast.17 mph94%29.95 "HgN/A
12:00 AM50 °FMostly cloudy.16 mph94%29.95 "HgN/A
11:00 PM
Oct 19
50 °FDrizzle. Mostly cloudy.21 mph88%29.95 "Hg3 mi
10:00 PM50 °FDrizzle. Mostly cloudy.18 mph88%29.95 "Hg3 mi
9:00 PM50 °FLight rain. Mostly cloudy.17 mph94%29.95 "Hg4 mi
8:00 PM50 °FScattered showers. Mostly cloudy.16 mph94%29.98 "Hg4 mi
7:00 PM50 °FLight rain. More clouds than sun.17 mph94%29.98 "Hg4 mi
6:00 PM50 °FScattered showers. More clouds than sun.20 mph94%29.98 "Hg4 mi
Weather by CustomWeather, © 2014

See weather overviewHow to use our weather pages